STARLINK-34597, 64738

Orbit data source: Space-Track

STARLINK-34597, 64738 is a payload satellite owned by SpaceX/Seattle (US) in LEO that was launched on Wed, 02 Jul 2025 UTC via an FALCON 9 launch vehicle from the Air Force Eastern Test Range (AFETR). Payload-class satellites include a variety of spacecraft equipped with specific instruments for various scientific and technological missions. These include communications satellites like Starlink; space stations such as the ISS; scientific satellites like the Hubble; Earth observation satellites from companies like Planet Labs, Umbra, and HawkEye 360; GPS; miniature CubeSats for education and research; and military/defense satellites.

Loading next visibility...
Identifier
64738, 2025-144Q
Orbit
LEO
Country
Flag of USUS
Related business
Manufacturer
SpaceX/Seattle
Mission
Operational Commercial Communications
Bus & Motor
STARLINK V2MO, Unknown motor
Mass
575 kg wet, ~530 kg dry
Launch date (UTC)
2025-07-02 (1 year ago)
Launch vehicle
FALCON 9
Launch site
Air Force Eastern Test Range (AFETR)
Object type
Payload
Rocket body
Debris
Shape & HBR
Box + 2 Pan, 17.7 m
Radar Cross Section
36.964 m², Large (>1 m²)

Expand to show TLE details & history
Last TLE update: 21 hours ago

TLE from 21 hours ago
0 STARLINK-34597
1 64738U 25144Q   26170.95659391  .00011072  00000-0  38523-3 0  9992
2 64738  53.1609  65.7209 0001466  92.9476 267.1692 15.30213133 55350
Epoch: 2026-06-19T22:57Z
TLE epoch observation values (Epoch: 2026-06-19T22:57:29.713Z)
Latitude
-0.00009°
Longitude
173.1689°
Altitude
476.125 km
Speed
7.629 km/s
True Right ascension
04h 22m 53s
True Declination
0° 00' 00"
Sunlit
Object was in daylight at epoch
Visualization orbit readout
Latitude
Unknown
Longitude
Unknown
Altitude
Unknown
Speed
Unknown
Apparent Right ascension
Unknown
Apparent Declination
Unknown
Sunlit
N/A
Visualization observer readout
Local Sidereal Time
07:23:03
Azimuth
Unknown
Elevation
Unknown
Doppler factor
Unknown
Orbital elements
Apogee altitude
476.437 km
Perigee altitude
474.427 km
Semi-major axis
6,853.569 km
Eccentricity
0.00015
Inclination
53.1609°
RAAN
65.7209°
Arg. of periapsis
92.9476°
True anomaly
267.15242°
Mean anomaly
267.1692°
Eccentric anomaly
267.16081°
Mean motion
3.82532 °/min
Orbital period
94.11 mins
BSTAR
0.00038523
Loading maneuver chart data...
Computing Atmospheric mass density...
Loading historical data...
Loading historical data...
Loading historical data...
Loading historical data...
Loading historical data...
Loading historical data...
Loading historical data...

Documentation

Showing up to 5 results
|